• Em Portugal
  • Lista de países
  • Para 7 dias
  • Temperatura da água
  • Mapas de satélite
  • Mapa do tempo
  • Widgets de tempo
  • user-avatar
    Iniciar Sessão

    Previsão horária em Katmandu

    Hoje, 15 Dezembro, Sexta-feira

    Tempo Temperatura Precipitação Vento Pressão Humidade
    00:00 +10°C° 0 mm 3 m/s 653 mmHg 12%
    01:00 +10°C° 0 mm 3 m/s 653 mmHg 11%
    02:00 +10°C° 0 mm 3 m/s 653 mmHg 11%
    03:00 +10°C° 0 mm 3 m/s 652 mmHg 10%
    04:00 +10°C° 0 mm 3 m/s 652 mmHg 10%
    05:00 +10°C° 0 mm 3 m/s 652 mmHg 10%
    06:00 +9°C° 0 mm 3 m/s 652 mmHg 10%
    07:00 +11°C° 0 mm 3 m/s 653 mmHg 11%
    08:00 +15°C° 0 mm 2 m/s 654 mmHg 13%
    09:00 +18°C° 0 mm 1 m/s 655 mmHg 14%
    10:00 +19°C° 0 mm 2 m/s 655 mmHg 13%
    11:00 +21°C° 0 mm 2 m/s 655 mmHg 11%
    12:00 +23°C° 0 mm 2 m/s 656 mmHg 9%
    13:00 +23°C° 0 mm 2 m/s 655 mmHg 10%
    14:00 +23°C° 0 mm 2 m/s 655 mmHg 12%
    15:00 +21°C° 0 mm 2 m/s 654 mmHg 13%
    16:00 +19°C° 0 mm 2 m/s 654 mmHg 17%
    17:00 +16°C° 0 mm 2 m/s 653 mmHg 20%
    18:00 +13°C° 0 mm 2 m/s 652 mmHg 24%
    19:00 +12°C° 0 mm 2 m/s 653 mmHg 21%
    20:00 +12°C° 0 mm 2 m/s 653 mmHg 18%
    21:00 +11°C° 0 mm 3 m/s 653 mmHg 15%
    22:00 +11°C° 0 mm 3 m/s 653 mmHg 13%
    23:00 +11°C° 0 mm 3 m/s 653 mmHg 11%

    Amanhã, 16 Dezembro, Sábado

    Tempo Temperatura Precipitação Vento Pressão Humidade
    00:00 +11°C° 0 mm 3 m/s 653 mmHg 10%
    01:00 +10°C° 0 mm 3 m/s 653 mmHg 9%
    02:00 +10°C° 0 mm 3 m/s 653 mmHg 9%
    03:00 +10°C° 0 mm 3 m/s 653 mmHg 9%
    04:00 +10°C° 0 mm 3 m/s 653 mmHg 9%
    05:00 +10°C° 0 mm 3 m/s 653 mmHg 10%
    06:00 +10°C° 0 mm 3 m/s 653 mmHg 10%
    07:00 +13°C° 0 mm 2 m/s 654 mmHg 12%
    08:00 +15°C° 0 mm 1 m/s 655 mmHg 13%
    09:00 +18°C° 0 mm 1 m/s 656 mmHg 15%
    10:00 +20°C° 0 mm 1 m/s 656 mmHg 14%
    11:00 +21°C° 0 mm 1 m/s 656 mmHg 14%
    12:00 +23°C° 0 mm 2 m/s 657 mmHg 13%
    13:00 +23°C° 0 mm 2 m/s 656 mmHg 14%
    14:00 +23°C° 0 mm 2 m/s 655 mmHg 16%
    15:00 +21°C° 0 mm 2 m/s 655 mmHg 17%
    16:00 +18°C° 0 mm 2 m/s 654 mmHg 23%
    17:00 +15°C° 0 mm 2 m/s 654 mmHg 29%
    18:00 +12°C° 0 mm 2 m/s 653 mmHg 34%
    19:00 +12°C° 0 mm 2 m/s 654 mmHg 31%
    20:00 +12°C° 0 mm 2 m/s 654 mmHg 27%
    21:00 +12°C° 0 mm 2 m/s 654 mmHg 24%
    22:00 +12°C° 0 mm 2 m/s 654 mmHg 22%
    23:00 +12°C° 0 mm 2 m/s 655 mmHg 19%

    Depois de amanhã, 17 Dezembro, Domingo

    Tempo Temperatura Precipitação Vento Pressão Humidade
    00:00 +12°C° 0 mm 2 m/s 655 mmHg 17%
    01:00 +10°C° 0 mm 2 m/s 654 mmHg 16%
    02:00 +10°C° 0 mm 2 m/s 654 mmHg 15%
    03:00 +10°C° 0 mm 2 m/s 654 mmHg 13%
    04:00 +10°C° 0 mm 2 m/s 654 mmHg 13%
    05:00 +10°C° 0 mm 2 m/s 654 mmHg 12%
    06:00 +10°C° 0 mm 2 m/s 654 mmHg 12%
    07:00 +13°C° 0 mm 2 m/s 655 mmHg 13%
    08:00 +15°C° 0 mm 1 m/s 656 mmHg 14%
    09:00 +18°C° 0 mm 1 m/s 657 mmHg 15%
    10:00 +20°C° 0 mm 1 m/s 658 mmHg 15%
    11:00 +21°C° 0 mm 1 m/s 658 mmHg 14%
    12:00 +23°C° 0 mm 2 m/s 658 mmHg 13%
    13:00 +23°C° 0 mm 2 m/s 657 mmHg 15%
    14:00 +21°C° 0 mm 2 m/s 656 mmHg 17%
    15:00 +21°C° 0 mm 2 m/s 656 mmHg 18%
    16:00 +18°C° 0 mm 2 m/s 655 mmHg 26%
    17:00 +15°C° 0 mm 1 m/s 654 mmHg 33%
    18:00 +12°C° 0 mm 1 m/s 653 mmHg 41%
    19:00 +12°C° 0 mm 1 m/s 654 mmHg 39%
    20:00 +12°C° 0 mm 1 m/s 654 mmHg 37%
    21:00 +10°C° 0 mm 2 m/s 654 mmHg 36%
    22:00 +10°C° 0 mm 2 m/s 654 mmHg 33%
    23:00 +10°C° 0 mm 2 m/s 654 mmHg 31%

    18 Dezembro, Segunda-feira

    Tempo Temperatura Precipitação Vento Pressão Humidade
    00:00 +10°C° 0 mm 2 m/s 654 mmHg 29%
    01:00 +10°C° 0 mm 2 m/s 654 mmHg 28%
    02:00 +10°C° 0 mm 2 m/s 653 mmHg 26%
    03:00 +10°C° 0 mm 2 m/s 653 mmHg 25%
    04:00 +10°C° 0 mm 2 m/s 653 mmHg 24%
    05:00 +10°C° 0 mm 2 m/s 653 mmHg 22%
    06:00 +9°C° 0 mm 2 m/s 653 mmHg 21%
    07:00 +13°C° 0 mm 1 m/s 654 mmHg 20%
    08:00 +15°C° 0 mm 1 m/s 656 mmHg 20%
    09:00 +16°C° 0 mm 0 m/s 657 mmHg 20%
    10:00 +20°C° 0 mm 1 m/s 657 mmHg 19%
    11:00 +21°C° 0 mm 1 m/s 657 mmHg 18%
    12:00 +23°C° 0 mm 2 m/s 657 mmHg 17%
    13:00 +21°C° 0 mm 2 m/s 657 mmHg 20%
    14:00 +21°C° 0 mm 2 m/s 656 mmHg 22%
    15:00 +21°C° 0 mm 2 m/s 655 mmHg 24%
    16:00 +18°C° 0 mm 2 m/s 655 mmHg 33%
    17:00 +15°C° 0 mm 1 m/s 654 mmHg 42%
    18:00 +12°C° 0 mm 1 m/s 653 mmHg 51%
    19:00 +12°C° 0 mm 1 m/s 653 mmHg 50%
    20:00 +12°C° 0 mm 1 m/s 654 mmHg 49%
    21:00 +11°C° 0 mm 1 m/s 654 mmHg 49%
    22:00 +11°C° 0 mm 1 m/s 654 mmHg 47%
    23:00 +10°C° 0 mm 2 m/s 654 mmHg 46%

    19 Dezembro, Terça-feira

    Tempo Temperatura Precipitação Vento Pressão Humidade
    00:00 +10°C° 0 mm 2 m/s 654 mmHg 44%
    01:00 +10°C° 0 mm 2 m/s 654 mmHg 42%
    02:00 +10°C° 0 mm 2 m/s 653 mmHg 40%
    03:00 +10°C° 0 mm 2 m/s 653 mmHg 38%
    04:00 +10°C° 0 mm 2 m/s 653 mmHg 37%
    05:00 +10°C° 0 mm 2 m/s 653 mmHg 36%
    06:00 +10°C° 0 mm 2 m/s 653 mmHg 35%
    07:00 +13°C° 0 mm 1 m/s 654 mmHg 32%
    08:00 +15°C° 0 mm 1 m/s 655 mmHg 30%
    09:00 +16°C° 0 mm 0 m/s 657 mmHg 28%
    10:00 +20°C° 0 mm 1 m/s 657 mmHg 26%
    11:00 +21°C° 0 mm 1 m/s 657 mmHg 24%
    12:00 +23°C° 0 mm 2 m/s 657 mmHg 22%
    13:00 +21°C° 0 mm 2 m/s 656 mmHg 24%
    14:00 +21°C° 0 mm 2 m/s 656 mmHg 25%
    15:00 +21°C° 0 mm 2 m/s 655 mmHg 27%
    16:00 +18°C° 0 mm 2 m/s 655 mmHg 35%
    17:00 +16°C° 0 mm 1 m/s 654 mmHg 43%
    18:00 +13°C° 0 mm 1 m/s 653 mmHg 51%
    19:00 +12°C° 0 mm 1 m/s 653 mmHg 51%
    20:00 +12°C° 0 mm 1 m/s 654 mmHg 50%
    21:00 +12°C° 0 mm 1 m/s 654 mmHg 50%
    22:00 +12°C° 0 mm 1 m/s 654 mmHg 48%
    23:00 +12°C° 0 mm 2 m/s 654 mmHg 47%

    20 Dezembro, Quarta-feira

    Tempo Temperatura Precipitação Vento Pressão Humidade
    00:00 +12°C° 0 mm 2 m/s 654 mmHg 45%
    01:00 +12°C° 0 mm 2 m/s 654 mmHg 43%
    02:00 +10°C° 0 mm 2 m/s 653 mmHg 40%
    03:00 +10°C° 0 mm 2 m/s 653 mmHg 38%
    04:00 +10°C° 0 mm 2 m/s 653 mmHg 36%
    05:00 +10°C° 0 mm 2 m/s 653 mmHg 34%
    06:00 +10°C° 0 mm 2 m/s 653 mmHg 32%
    07:00 +13°C° 0 mm 1 m/s 654 mmHg 30%
    08:00 +15°C° 0 mm 1 m/s 655 mmHg 28%
    09:00 +16°C° 0 mm 0 m/s 657 mmHg 26%
    10:00 +20°C° 0 mm 1 m/s 657 mmHg 25%
    11:00 +21°C° 0 mm 1 m/s 657 mmHg 23%
    12:00 +23°C° 0 mm 2 m/s 657 mmHg 21%
    13:00 +23°C° 0 mm 2 m/s 656 mmHg 23%
    14:00 +21°C° 0 mm 2 m/s 656 mmHg 24%
    15:00 +21°C° 0 mm 2 m/s 655 mmHg 26%
    16:00 +18°C° 0 mm 2 m/s 654 mmHg 35%
    17:00 +15°C° 0 mm 1 m/s 654 mmHg 44%
    18:00 +12°C° 0 mm 1 m/s 653 mmHg 53%
    19:00 +12°C° 0 mm 1 m/s 654 mmHg 52%
    20:00 +12°C° 0 mm 1 m/s 654 mmHg 52%
    21:00 +10°C° 0 mm 2 m/s 654 mmHg 52%
    22:00 +10°C° 0 mm 2 m/s 654 mmHg 50%
    23:00 +10°C° 0 mm 2 m/s 654 mmHg 49%
    Mostrar mais